FW4608 Saint Johns FL US current weather conditions

sailwx.info

Wind from 255 at 1 knots gusting 5

Air temperature 12.8° C
Dewpoint 9.0° C

Last reported at 2020-Jan-25 14:02 UTC.
Time now 2020-Jan-25 15:15 UTC

Location: N 30°07' W 081°37'.
View on Google Maps.

See reports from other nearby stations

  
Tides and Currents Weather Stations Pressure Air Temp Water Temp Dewpoint Dewpoint Depression Visibility Wind Speed Wind Dir Waves Ship Positions
date/time (UTC)wind fromknots sea level pressurealtimeterstation pressurevisibilityair tempwater tempwave heightnotes
2020-Jan-25 14:02 255 1 gusting 5 12.8
2020-Jan-25 13:55 281 1 gusting 4 12.2
2020-Jan-25 13:50 244 1 gusting 4 12.2
2020-Jan-25 13:46 273 0 gusting 4 12.2
2020-Jan-25 13:41 295 0 gusting 3 11.7
2020-Jan-25 13:35 234 0 gusting 3 11.1
2020-Jan-25 13:31 293 0 gusting 5 11.1
2020-Jan-25 13:25 263 0 gusting 5 11.1
2020-Jan-25 13:20 250 11.1
2020-Jan-25 13:17 227 0 gusting 3 10.6
2020-Jan-25 13:10 202 10.6
2020-Jan-25 13:01 236 10.6
2020-Jan-25 12:55 232 10.6
2020-Jan-25 12:50 245 10.6
2020-Jan-25 12:46 190 10.6
2020-Jan-25 12:40 250 10.6
2020-Jan-25 12:35 283 10.6
2020-Jan-25 12:30 283 10.6
2020-Jan-25 12:25 282 10.6
2020-Jan-25 12:20 229 10.6
2020-Jan-25 12:16 255 10.6
2020-Jan-25 12:10 307 11.1
2020-Jan-25 12:05 276 11.1
2020-Jan-25 11:55 234 11.1
2020-Jan-25 11:50 236 11.1
2020-Jan-25 11:40 206 11.7
2020-Jan-25 11:35 212 11.7
2020-Jan-25 11:25 260 11.7
2020-Jan-25 11:15 205 11.7
2020-Jan-25 11:05 232 11.1
2020-Jan-25 11:00 232 11.7
2020-Jan-25 10:55 289 11.7
2020-Jan-25 10:48 289 11.7
2020-Jan-25 10:41 258 12.2
2020-Jan-25 10:35 278 12.2
2020-Jan-25 10:32 291 12.2
2020-Jan-25 10:25 291 12.2
2020-Jan-25 10:20 266 12.2
2020-Jan-25 10:16 174 12.8
2020-Jan-25 10:10 287 12.8
2020-Jan-25 10:05 263 0 gusting 2 12.8
2020-Jan-25 10:03 291 12.8
2020-Jan-25 09:55 290 0 gusting 2 12.8
2020-Jan-25 09:50 265 0 gusting 2 13.3
2020-Jan-25 09:48 269 13.3
2020-Jan-25 09:40 290 13.3
2020-Jan-25 09:35 290 1 gusting 5 13.3
2020-Jan-25 09:32 224 0 gusting 5 13.3
2020-Jan-25 09:25 272 0 gusting 5 13.3
2020-Jan-25 09:20 236 0 gusting 4 13.3
2020-Jan-25 09:16 227 0 gusting 4 13.3
2020-Jan-25 09:10 231 0 gusting 3 13.9
2020-Jan-25 09:05 278 0 gusting 3 13.9
2020-Jan-25 09:00 280 0 gusting 2 13.9
2020-Jan-25 08:55 278 0 gusting 3 13.9
2020-Jan-25 08:50 292 0 gusting 3 13.9
2020-Jan-25 08:47 234 0 gusting 4 13.9
2020-Jan-25 08:40 229 0 gusting 4 13.9
2020-Jan-25 08:35 231 0 gusting 2 13.9
2020-Jan-25 08:31 219 0 gusting 3 13.9
2020-Jan-25 08:25 235 0 gusting 1 13.9
2020-Jan-25 08:20 240 0 gusting 1 13.9
2020-Jan-25 08:15 293 13.9
2020-Jan-25 08:10 273 0 gusting 2 13.9
2020-Jan-25 08:05 259 0 gusting 3 14.4
2020-Jan-25 08:01 281 0 gusting 3 14.4
2020-Jan-25 07:55 230 0 gusting 2 14.4
2020-Jan-25 07:50 274 14.4
2020-Jan-25 07:45 270 0 gusting 3 14.4
2020-Jan-25 07:40 264 0 gusting 3 14.4
2020-Jan-25 07:35 238 0 gusting 3 14.4
2020-Jan-25 07:25 220 0 gusting 4 15.0
2020-Jan-25 07:20 245 1 gusting 7 15.0
2020-Jan-25 07:15 267 2 gusting 7 15.0
2020-Jan-25 07:05 263 1 gusting 4 15.0
2020-Jan-25 06:55 140 0 gusting 3 15.0
2020-Jan-25 06:50 240 0 gusting 2 14.4
2020-Jan-25 06:45 224 14.4
2020-Jan-25 06:40 218 15.0
2020-Jan-25 06:35 219 15.0
2020-Jan-25 06:26 225 15.0
2020-Jan-25 06:20 240 0 gusting 2 15.0
2020-Jan-25 06:17 231 15.0
2020-Jan-25 06:10 250 15.0
2020-Jan-25 06:05 205 15.6
2020-Jan-25 06:03 176 15.6
2020-Jan-25 05:55 251 15.6
2020-Jan-25 05:50 233 0 gusting 2 15.6
2020-Jan-25 05:47 271 0 gusting 2 15.6
2020-Jan-25 05:40 230 15.6
2020-Jan-25 05:36 242 15.6
2020-Jan-25 05:31 233 0 gusting 2 16.1
2020-Jan-25 05:25 245 0 gusting 3 16.1
2020-Jan-25 05:21 212 0 gusting 3 16.1
2020-Jan-25 05:16 136 0 gusting 4 16.1
2020-Jan-25 05:10 230 0 gusting 7 16.1
2020-Jan-25 05:05 236 1 gusting 7 16.1
2020-Jan-25 05:01 217 1 gusting 4 16.1
2020-Jan-25 04:55 236 1 gusting 4 16.1
2020-Jan-25 04:50 291 1 gusting 3 16.1
2020-Jan-25 04:46 234 0 gusting 3 16.1
2020-Jan-25 04:40 259 0 gusting 2 16.1
2020-Jan-25 04:35 248 0 gusting 2 16.1
2020-Jan-25 04:31 223 0 gusting 4 16.1
2020-Jan-25 04:26 256 0 gusting 4 16.1
2020-Jan-25 04:20 276 16.7
2020-Jan-25 04:16 244 16.7
2020-Jan-25 04:11 202 0 gusting 3 16.7
2020-Jan-25 04:05 229 0 gusting 2 16.7
2020-Jan-25 04:01 232 16.7
2020-Jan-25 03:55 289 16.7
2020-Jan-25 03:50 207 0 gusting 2 17.2
2020-Jan-25 03:45 252 0 gusting 3 17.2
2020-Jan-25 03:40 275 0 gusting 3 17.2
2020-Jan-25 03:35 273 0 gusting 3 17.2
2020-Jan-25 03:31 286 1 gusting 4 17.2
2020-Jan-25 03:25 273 0 gusting 4 17.2
2020-Jan-25 03:20 264 1 gusting 6 17.2
2020-Jan-25 03:16 215 1 gusting 6 17.8
2020-Jan-25 03:10 277 1 gusting 3 17.8
2020-Jan-25 03:05 238 0 gusting 6 17.8
2020-Jan-25 03:01 236 1 gusting 6 17.8
2020-Jan-25 02:55 271 1 gusting 5 17.2
2020-Jan-25 02:50 236 0 gusting 3 17.2
2020-Jan-25 02:45 260 16.7
2020-Jan-25 02:40 103 16.7
2020-Jan-25 02:35 286 16.7
2020-Jan-25 02:31 221 16.7
2020-Jan-25 02:25 255 0 gusting 3 16.1
2020-Jan-25 02:20 057 16.1
2020-Jan-25 02:10 034 16.1
2020-Jan-25 02:05 034 16.1
2020-Jan-25 02:00 293 16.1
2020-Jan-25 01:55 293 16.1
2020-Jan-25 01:50 031 16.1
2020-Jan-25 01:40 031 16.1
2020-Jan-25 01:35 091 16.1
2020-Jan-25 01:25 091 16.1
2020-Jan-25 01:20 091 16.1
2020-Jan-25 01:15 091 16.1
2020-Jan-25 01:10 091 16.1
2020-Jan-25 01:05 091 16.1
2020-Jan-25 01:00 092 16.1
2020-Jan-25 00:55 092 16.1
2020-Jan-25 00:50 092 16.1
2020-Jan-25 00:45 036 16.1
2020-Jan-25 00:40 036 16.1
2020-Jan-25 00:35 036 16.1
2020-Jan-25 00:30 036 16.1
2020-Jan-25 00:25 036 16.7
2020-Jan-25 00:20 036 16.7
2020-Jan-25 00:15 036 16.7
2020-Jan-25 00:06 036 16.7
2020-Jan-25 00:03 036 17.2
2020-Jan-24 23:56 035 17.2
2020-Jan-24 23:51 036 17.2
2020-Jan-24 23:46 036 17.2
2020-Jan-24 23:41 036 17.2
2020-Jan-24 23:35 035 17.2
2020-Jan-24 23:31 036 17.8
2020-Jan-24 23:25 036 17.8
2020-Jan-24 23:20 036 17.8
2020-Jan-24 23:17 036 18.3
2020-Jan-24 23:10 036 18.9
2020-Jan-24 23:06 036 18.9
2020-Jan-24 23:02 036 19.4
2020-Jan-24 22:55 036 19.4
2020-Jan-24 22:51 127 20.0
2020-Jan-24 22:47 127 20.0
2020-Jan-24 22:41 304 20.6
2020-Jan-24 22:35 284 20.6
2020-Jan-24 22:33 056 20.6
2020-Jan-24 22:25 180 0 gusting 3 20.6
2020-Jan-24 22:20 265 20.6
2020-Jan-24 22:16 246 20.6
2020-Jan-24 22:10 271 0 gusting 4 20.6
2020-Jan-24 22:05 208 0 gusting 6 20.0
2020-Jan-24 22:01 024 1 gusting 6 20.6
2020-Jan-24 21:55 229 1 gusting 7 20.6
2020-Jan-24 21:51 164 1 gusting 7 20.0
2020-Jan-24 21:47 254 0 gusting 3 20.0
2020-Jan-24 21:40 248 0 gusting 3 20.0
2020-Jan-24 21:35 248 20.0
2020-Jan-24 21:31 237 1 gusting 3 20.0
2020-Jan-24 21:25 228 0 gusting 2 20.0
2020-Jan-24 21:20 238 0 gusting 2 20.0
2020-Jan-24 21:16 246 0 gusting 1 20.0
2020-Jan-24 21:10 262 20.0
2020-Jan-24 21:05 237 20.0
2020-Jan-24 21:01 167 20.0
2020-Jan-24 20:55 232 20.0
2020-Jan-24 20:50 217 0 gusting 2 20.0
2020-Jan-24 20:46 220 0 gusting 5 20.0
2020-Jan-24 20:40 274 0 gusting 6 20.6
2020-Jan-24 20:35 217 2 gusting 5 21.1
2020-Jan-24 20:31 226 1 gusting 3 21.7
2020-Jan-24 20:25 240 22.2
2020-Jan-24 20:20 068 22.8
2020-Jan-24 20:15 229 22.8
2020-Jan-24 20:10 029 22.8
2020-Jan-24 20:05 250 0 gusting 1 22.8
2020-Jan-24 20:00 212 22.8
2020-Jan-24 19:55 162 22.8
2020-Jan-24 19:50 265 22.8
2020-Jan-24 19:47 189 23.3
2020-Jan-24 19:40 237 0 gusting 3 23.3
2020-Jan-24 19:35 283 23.9
2020-Jan-24 19:30 285 23.9
2020-Jan-24 19:25 160 23.9
2020-Jan-24 19:20 079 1 gusting 5 24.4
2020-Jan-24 19:16 195 0 gusting 4 24.4
2020-Jan-24 19:10 039 0 gusting 4 25.0
2020-Jan-24 19:05 060 0 gusting 5 24.4
2020-Jan-24 18:55 276 0 gusting 2 24.4
2020-Jan-24 18:50 134 0 gusting 3 23.3
2020-Jan-24 18:40 288 0 gusting 4 23.9
2020-Jan-24 18:30 217 1 gusting 7 23.9
2020-Jan-24 18:25 283 0 gusting 2 24.4
2020-Jan-24 18:20 240 0 gusting 4 24.4
2020-Jan-24 18:15 060 0 gusting 4 23.9
2020-Jan-24 18:10 255 1 gusting 4 23.9
2020-Jan-24 18:02 190 1 gusting 5 23.9
2020-Jan-24 17:55 224 1 gusting 5 23.9
2020-Jan-24 17:50 300 0 gusting 3 23.9
2020-Jan-24 17:47 272 0 gusting 3 23.9
2020-Jan-24 17:41 228 23.9
2020-Jan-24 17:35 148 0 gusting 4 23.3
2020-Jan-24 17:32 094 0 gusting 3 23.3
2020-Jan-24 17:26 279 0 gusting 4 23.9
2020-Jan-24 17:20 295 0 gusting 6 22.8
2020-Jan-24 17:16 197 0 gusting 6 22.8
2020-Jan-24 17:10 217 2 gusting 6 22.8
2020-Jan-24 17:05 288 0 gusting 5 23.3
2020-Jan-24 17:03 158 1 gusting 4 23.3
2020-Jan-24 16:55 208 0 gusting 4 23.3
2020-Jan-24 16:50 005 22.8
2020-Jan-24 16:46 207 22.8
2020-Jan-24 16:40 094 1 gusting 4 22.8
2020-Jan-24 16:35 211 0 gusting 5 22.8
2020-Jan-24 16:31 281 1 gusting 5 22.8
2020-Jan-24 16:25 117 0 gusting 5 22.8
2020-Jan-24 16:20 103 0 gusting 4 22.8
2020-Jan-24 16:17 029 0 gusting 5 22.2
2020-Jan-24 16:10 065 0 gusting 5 22.2
2020-Jan-24 16:05 148 0 gusting 4 22.2
2020-Jan-24 16:00 136 1 gusting 4 22.2
2020-Jan-24 15:55 100 0 gusting 4 22.2
2020-Jan-24 15:50 072 0 gusting 4 22.2
2020-Jan-24 15:46 099 0 gusting 6 22.2
2020-Jan-24 15:40 176 0 gusting 6 22.2
2020-Jan-24 15:35 270 21.7
2020-Jan-24 15:30 009 21.7
2020-Jan-24 15:25 277 0 gusting 3 21.7
2020-Jan-24 15:20 260 0 gusting 3 21.7
2020-Jan-24 15:15 209 0 gusting 3 21.1
2020-Jan-24 15:10 058 21.1
2020-Jan-24 15:05 226 20.6
2020-Jan-24 14:55 080 20.0
2020-Jan-24 14:50 047 0 gusting 3 20.0
2020-Jan-24 14:45 020 19.4
2020-Jan-24 14:40 259 0 gusting 5 18.9
2020-Jan-24 14:35 100 0 gusting 1 18.9
2020-Jan-24 14:25 229 18.3
2020-Jan-24 14:18 094 17.2
2020-Jan-24 14:11 070 16.7
2020-Jan-24 14:05 070 16.1
2020-Jan-24 14:02 120 16.1
2020-Jan-24 13:55 120 15.6
2020-Jan-24 13:50 120 15.0
2020-Jan-24 13:46 119 15.0
2020-Jan-24 13:40 119 14.4
2020-Jan-24 13:36 120 13.9
2020-Jan-24 13:33 120 13.9
2020-Jan-24 13:25 119 13.9
2020-Jan-24 13:20 119 13.3
2020-Jan-24 13:15 119 13.3
2020-Jan-24 13:11 119 13.3
2020-Jan-24 13:05 120 13.3
2020-Jan-24 13:01 120 13.3
2020-Jan-24 12:55 119 13.3
2020-Jan-24 12:50 119 13.3
2020-Jan-24 12:46 119 13.3
2020-Jan-24 12:40 120 13.3
2020-Jan-24 12:35 120 13.3
2020-Jan-24 12:32 119 13.3
2020-Jan-24 12:25 119 13.3
2020-Jan-24 12:20 119 13.3
2020-Jan-24 12:16 120 13.3
2020-Jan-24 12:10 119 13.3
2020-Jan-24 12:05 119 13.3
2020-Jan-24 12:00 120 13.3
2020-Jan-24 11:55 119 13.3
2020-Jan-24 11:50 119 13.3
2020-Jan-24 11:46 119 13.9
2020-Jan-24 11:40 120 13.9
2020-Jan-24 11:35 120 13.9
2020-Jan-24 11:31 119 13.9
2020-Jan-24 11:25 119 13.9
2020-Jan-24 11:20 119 13.9
2020-Jan-24 11:16 119 13.9
2020-Jan-24 11:10 119 13.9
2020-Jan-24 11:05 120 13.9
2020-Jan-24 11:00 119 13.9
2020-Jan-24 10:55 120 13.9
2020-Jan-24 10:50 120 13.9
2020-Jan-24 10:45 119 13.9
2020-Jan-24 10:40 120 13.9
2020-Jan-24 10:35 119 13.9
2020-Jan-24 10:25 120 13.9
2020-Jan-24 10:15 119 13.9
2020-Jan-24 10:10 119 13.9
2020-Jan-24 10:00 120 13.9
2020-Jan-24 09:55 120 13.9
2020-Jan-24 09:50 120 13.9
2020-Jan-24 09:40 120 13.9
2020-Jan-24 09:35 120 13.9
2020-Jan-24 09:30 120 13.9
2020-Jan-24 09:25 119 13.9
2020-Jan-24 09:20 120 13.9
2020-Jan-24 09:10 120 13.9
2020-Jan-24 09:05 119 13.9
2020-Jan-24 09:00 120 13.9
2020-Jan-24 08:51 120 13.9
2020-Jan-24 08:47 119 13.9
2020-Jan-24 08:40 120 13.9
2020-Jan-24 08:35 118 13.9
2020-Jan-24 08:32 117 13.9
2020-Jan-24 08:25 118 13.9
2020-Jan-24 08:21 118 13.9
2020-Jan-24 08:17 118 13.9
2020-Jan-24 08:11 118 13.9
2020-Jan-24 08:06 118 13.9
2020-Jan-24 08:02 118 13.9
2020-Jan-24 07:56 117 13.9
2020-Jan-24 07:50 117 13.9
2020-Jan-24 07:46 118 13.9
2020-Jan-24 07:40 118 13.9
2020-Jan-24 07:35 118 13.9
2020-Jan-24 07:31 098 13.9
2020-Jan-24 07:25 098 13.9
2020-Jan-24 07:20 098 13.9
2020-Jan-24 07:16 098 13.9
2020-Jan-24 07:10 098 13.9
2020-Jan-24 07:05 098 13.9
2020-Jan-24 07:01 098 13.9
2020-Jan-24 06:55 098 13.9
2020-Jan-24 06:50 098 13.3
2020-Jan-24 06:46 098 13.3
2020-Jan-24 06:40 098 13.3
2020-Jan-24 06:35 098 13.9
2020-Jan-24 06:31 098 13.9
2020-Jan-24 06:25 098 13.9
2020-Jan-24 06:20 098 13.9
2020-Jan-24 06:16 098 13.9
2020-Jan-24 06:10 098 13.9
2020-Jan-24 06:05 098 13.9
2020-Jan-24 06:00 098 13.9
2020-Jan-24 05:55 098 13.9
2020-Jan-24 05:50 098 13.9
2020-Jan-24 05:46 098 13.9
2020-Jan-24 05:40 098 13.9
2020-Jan-24 05:35 098 13.9
2020-Jan-24 05:31 098 13.9
2020-Jan-24 05:25 098 13.9
2020-Jan-24 05:20 098 13.9
2020-Jan-24 05:16 098 13.9
2020-Jan-24 05:10 098 13.9
2020-Jan-24 05:05 098 13.9
2020-Jan-24 05:00 098 13.9
2020-Jan-24 04:55 098 13.9
2020-Jan-24 04:50 098 13.9
2020-Jan-24 04:45 098 13.9
2020-Jan-24 04:40 098 13.9
2020-Jan-24 04:30 098 13.9
2020-Jan-24 04:25 098 13.9
2020-Jan-24 04:20 098 13.9
2020-Jan-24 04:15 098 13.9
2020-Jan-24 04:05 098 14.4
2020-Jan-24 04:00 098 14.4
2020-Jan-24 03:55 098 14.4
2020-Jan-24 03:50 098 14.4
2020-Jan-24 03:40 098 14.4
2020-Jan-24 03:30 098 14.4
2020-Jan-24 03:25 098 14.4
2020-Jan-24 03:20 098 14.4
2020-Jan-24 03:15 098 14.4
2020-Jan-24 03:10 099 14.4
2020-Jan-24 03:05 097 13.9
2020-Jan-24 03:00 097 13.9
2020-Jan-24 02:55 097 13.9
2020-Jan-24 02:50 097 13.9
2020-Jan-24 02:45 097 13.9
2020-Jan-24 02:40 092 13.9
2020-Jan-24 02:31 092 13.9
2020-Jan-24 02:26 092 13.9
2020-Jan-24 02:20 080 13.9
2020-Jan-24 02:18 080 13.9
2020-Jan-24 02:10 290 13.9
2020-Jan-24 02:06 070 13.9
2020-Jan-24 02:02 060 13.9
2020-Jan-24 01:55 056 13.9
2020-Jan-24 01:50 056 13.9
2020-Jan-24 01:46 068 13.9
2020-Jan-24 01:40 068 13.9
2020-Jan-24 01:35 192 13.9
2020-Jan-24 01:33 192 13.9
2020-Jan-24 01:25 092 13.3
2020-Jan-24 01:20 092 13.3
2020-Jan-24 01:17 092 13.3
2020-Jan-24 01:10 092 13.3
2020-Jan-24 01:05 092 13.3
2020-Jan-24 01:02 143 13.3
2020-Jan-24 00:56 110 13.3
2020-Jan-24 00:50 127 13.3
2020-Jan-24 00:46 288 13.3
2020-Jan-24 00:40 226 13.3
2020-Jan-24 00:35 317 13.3
2020-Jan-24 00:33 314 13.3
2020-Jan-24 00:25 321 13.3
2020-Jan-24 00:20 125 13.3
2020-Jan-24 00:17 101 13.3
2020-Jan-24 00:10 132 13.3
2020-Jan-24 00:05 124 13.3
2020-Jan-24 00:02 288 13.3
2020-Jan-23 23:56 344 13.3
2020-Jan-23 23:50 108 13.3
2020-Jan-23 23:46 312 13.3
2020-Jan-23 23:40 111 13.3
2020-Jan-23 23:35 115 13.3
2020-Jan-23 23:31 074 13.3
2020-Jan-23 23:25 143 13.3
2020-Jan-23 23:20 167 0 gusting 4 13.3
2020-Jan-23 23:16 319 13.3
2020-Jan-23 23:10 247 13.3
2020-Jan-23 23:05 295 13.3
2020-Jan-23 23:01 084 13.3
2020-Jan-23 22:55 092 13.3
2020-Jan-23 22:50 101 0 gusting 2 13.9
2020-Jan-23 22:45 200 13.9
2020-Jan-23 22:40 124 13.9
2020-Jan-23 22:35 358 13.9
2020-Jan-23 22:31 083 13.9
2020-Jan-23 22:25 193 13.9
2020-Jan-23 22:20 065 0 gusting 2 13.9
2020-Jan-23 22:16 232 0 gusting 2 13.9
2020-Jan-23 22:10 297 13.9
2020-Jan-23 22:05 133 13.9
2020-Jan-23 22:00 074 14.4
2020-Jan-23 21:55 089 0 gusting 3 14.4
2020-Jan-23 21:50 076 0 gusting 1 14.4
2020-Jan-23 21:45 194 14.4
2020-Jan-23 21:40 098 14.4
2020-Jan-23 21:35 150 0 gusting 3 14.4
2020-Jan-23 21:30 245 14.4
2020-Jan-23 21:25 095 14.4
2020-Jan-23 21:20 186 14.4
2020-Jan-23 21:16 283 15.0
2020-Jan-23 21:10 330 0 gusting 4 15.0
2020-Jan-23 21:05 060 15.0
2020-Jan-23 21:00 173 15.0
2020-Jan-23 20:55 295 0 gusting 2 15.0
2020-Jan-23 20:50 103 15.6
2020-Jan-23 20:40 281 15.6
2020-Jan-23 20:35 181 15.6
2020-Jan-23 20:25 344 15.6
2020-Jan-23 20:20 304 15.6
2020-Jan-23 20:15 129 0 gusting 3 15.6
2020-Jan-23 20:10 128 0 gusting 3 15.6
2020-Jan-23 20:05 139 16.1
2020-Jan-23 20:00 070 16.1
2020-Jan-23 19:55 233 16.1
2020-Jan-23 19:50 223 16.1
2020-Jan-23 19:40 328 16.7
2020-Jan-23 19:35 323 0 gusting 3 16.7
2020-Jan-23 19:25 164 16.7
2020-Jan-23 19:20 310 0 gusting 4 16.7
2020-Jan-23 19:15 072 16.7
2020-Jan-23 19:10 285 16.7
2020-Jan-23 19:05 120 17.2
2020-Jan-23 18:56 149 17.2
2020-Jan-23 18:51 071 17.2
2020-Jan-23 18:48 027 0 gusting 4 17.2
2020-Jan-23 18:40 309 17.2
2020-Jan-23 18:35 073 0 gusting 4 17.2
2020-Jan-23 18:32 078 17.2
2020-Jan-23 18:25 036 0 gusting 2 17.2
2020-Jan-23 18:21 053 16.7
2020-Jan-23 18:16 297 16.7
2020-Jan-23 18:10 337 0 gusting 3 16.7
2020-Jan-23 18:05 103 16.7
2020-Jan-23 18:02 285 16.7
2020-Jan-23 17:56 342 16.7
2020-Jan-23 17:50 285 17.2
2020-Jan-23 17:48 263 17.2
2020-Jan-23 17:41 225 17.8
2020-Jan-23 17:35 198 17.2
2020-Jan-23 17:32 148 0 gusting 3 17.2
2020-Jan-23 17:25 286 0 gusting 3 16.7
2020-Jan-23 17:21 091 16.7
2020-Jan-23 17:17 068 0 gusting 2 16.1
2020-Jan-23 17:10 352 0 gusting 3 16.1
2020-Jan-23 17:05 330 0 gusting 3 16.1
2020-Jan-23 17:01 055 0 gusting 3 16.1
2020-Jan-23 16:56 307 16.1
2020-Jan-23 16:50 264 16.1
2020-Jan-23 16:46 309 0 gusting 4 16.1
2020-Jan-23 16:40 235 16.1
2020-Jan-23 16:35 170 16.1
2020-Jan-23 16:31 123 16.1
2020-Jan-23 16:25 240 16.7
2020-Jan-23 16:20 122 16.7
2020-Jan-23 16:15 222 16.7
2020-Jan-23 16:10 323 16.7
2020-Jan-23 16:05 342 16.7
2020-Jan-23 16:02 315 0 gusting 4 16.1
2020-Jan-23 15:55 171 16.1
2020-Jan-23 15:50 127 16.1
2020-Jan-23 15:46 156 0 gusting 4 16.1
2020-Jan-23 15:40 037 0 gusting 4 16.1
2020-Jan-23 15:35 321 16.1
2020-Jan-23 15:31 057 15.6
2020-Jan-23 15:25 321 0 gusting 3 15.6
2020-Jan-23 15:20 094 0 gusting 3 15.6
2020-Jan-23 15:10 290 1 gusting 3 15.0
2020-Jan-23 15:05 025 0 gusting 3 15.0